Tracking 30743 objects as of 22-Jun-2025
HD Live streaming from Space Station
objects crossing your sky now

SL-6 R/B(2)

Track SL-6 R/B(2) now!


NORAD ID: 10089
Int'l Code: 1977-047D
Perigee: 4,856.4 km
Apogee: 35,739.8 km
Inclination: 66.5 °
Period: 722.4 minutes
Semi major axis: 26669 km
RCS: 4.9235 m2 (large)
Launch date: June 16, 1977
Source: Commonwealth of Independent States (former USSR) (CIS)
Launch site: PLESETSK MISSILE AND SPACE COMPLEX (PKMTR)

Note: This is a ROCKET BODY
Your satellite tracking list
Your tracking list is empty




NASA's NSSDC Master Catalog

Two Line Element Set (TLE):
1 10089U 77047D   25172.10010277  .00000412  00000-0  00000-0 0  9995
2 10089  66.5223 117.8920 5790105 310.2638  11.8652  1.99338049253258
Source of the keplerian elements: AFSPC